Regional Weather Roundup
Issued by NWS

Home | Current Version | Previous Version | Graphics & Text | Print | Product List | Glossary On
Versions: 1 2 3 4 5 6 7 8 9 10 11 12 13 14 15 16 17 18 19 20 21 22 23 24 25 26 27 28 29 30 31 32 33 34 35 36 37 38 39 40 41 42 43 44 45 46 47 48 49 50
000
ASUS43 KFSD 190010
RWRSD

WEATHER ROUNDUP FOR SOUTH DAKOTA
NATIONAL WEATHER SERVICE SIOUX FALLS SD
700 PM CDT WED APR 18 2018

NOTE: "FAIR" INDICATES FEW OR NO CLOUDS BELOW 12,000 FEET WITH NO
SIGNIFICANT WEATHER AND/OR OBSTRUCTIONS TO VISIBILITY.


SDZ001>005-009-010-012>017-190100-
NORTHWEST AND NORTH CENTRAL SOUTH DAKOTA

CITY           SKY/WX    TMP DP  RH WIND       PRES   REMARKS
BUFFALO          N/A     52  28  39 N16       30.13R
FAITH            N/A     50  36  58 NE13G25   30.19R
MOBRIDGE       PTSUNNY   52  26  36 NE15      30.19R
$$

SDZ012>016-024>037-041>051-057-063-072>074-190100-
SOUTHWEST AND SOUTH CENTRAL SOUTH DAKOTA

CITY           SKY/WX    TMP DP  RH WIND       PRES   REMARKS
RAPID CTY ARPT PTSUNNY   53  23  31 NW18G28   30.19S
PIERRE         MOSUNNY   48  36  63 N12       30.20R
CUSTER         MOSUNNY   45  16  31 N10       30.20R
ELLSWORTH AFB  MOSUNNY   53  26  35 N15       30.19R
PHILIP         SUNNY     52  37  56 NE15      30.20R
PINE RIDGE     SUNNY     55  25  31 N17G28    30.19R
SPEARFISH      FAIR      46  23  39 NW8       30.22S
WINNER         CLOUDY    38  32  79 W8        30.22R
$$

SDZ004>011-016>023-039-040-190100-
NORTHEAST SOUTH DAKOTA

CITY           SKY/WX    TMP DP  RH WIND       PRES   REMARKS
ABERDEEN       PTSUNNY   45  30  55 N14       30.19R
WATERTOWN      CLOUDY    42  29  59 VRB7      30.13R
BROOKINGS      CLOUDY    39  28  64 N8        30.14R
SISSETON         N/A     47  31  53 E9        30.14R
$$

SDZ017-020-022-023-036>040-048>070-190100-
SOUTHEAST SOUTH DAKOTA

CITY           SKY/WX    TMP DP  RH WIND       PRES   REMARKS
SIOUX FALLS    CLOUDY    35  30  82 N6        30.15R
HURON          CLOUDY    42  29  59 N10       30.16R
CHAMBERLAIN    SUNNY     44  40  86 NW10      30.20R
MITCHELL       CLOUDY    38  33  82 NW13      30.17R
YANKTON        MIX PCPN  36  34  93 W14       30.16R
$$

ABBREVIATIONS USED IN REMARKS
   TC - TEMPERATURE IN CELSIUS
  WCI - WIND CHILL INDEX
   HX - HEAT INDEX
  VSB - VISIBILITY




USA.gov is the U.S. government's official web portal to all federal, state and local government web resources and services.